Lid_Strength_Index
14 14 14 14 15 15 15 14 14 14 14 14 13 14 14 15 15 15 15 16 16 16
14 14 14 14 15 15 14 14 14 14 14 14 14 14 15 15 15 15 15 16 15 16
14 14 14 15 15 14 14 14 14 14 14 14 14 15 15 15 15 16 15 15 16 16
14 14 14 14 14 14 14 14 14 14 14 14 14 15 15 16 16 16 16 16 16 16
14 14 15 15 14 14 14 14 14 14 14 14 14 15 16 16 16 16 16 16 16 16
15 15 15 15 14 14 14 14 14 14 14 14 15 15 15 16 16 16 16 16 16 15
15 15 15 14 14 14 14 14 14 14 14 15 15 15 15 15 15 16 15 15 14 15
14 15 15 14 14 14 14 14 14 14 15 15 15 15 15 15 15 15 15 14 14 12
15 15 15 15 14 14 14 14 14 15 16 16 15 14 13 13 14 14 15 15 12 11
15 15 15 15 14 14 15 15 15 16 16 16 16 14 13 13 14 14 14 12 11 10
15 15 15 15 15 15 15 17 18 19 18 18 17 14 14 13 14 13 11 10 10 9
15 16 15 17 17 16 17 18 18 17 19 19 18 15 14 14 13 12 11 9 9 9
18 17 18 18 18 18 18 18 18 18 18 18 18 16 14 12 12 12 11 10 9 8
20 20 19 19 19 19 20 20 23 21 20 20 19 18 14 11 11 11 11 11 11 10